sat.trackr.live / text

‹ back to catalog

STARLINK-34291

NORAD 64359 · 2025-126R

PAYLOAD ACTIVE UNKNOWN

§ Identity

Operator
Country
US
Launch date
2025-06-13
Launch site
AFWTR
Launch vehicle
Mass (kg)
RCS (m²)

Purposes: comms

External: N2YO · Heavens-Above · Gunter

§ Orbital elements

Epoch: 2026-05-25T03:13:48.899136Z

Period
96.11 min
Inclination
70.0003°
Eccentricity
0.0003695
Mean motion
14.98326558 rev/d
Perigee alt
569.5 km
Apogee alt
574.6 km
Semi-major
6,950.2 km
B*
3.3213e-4
RAAN
201.6614°
Arg perigee
269.7975°
Mean anomaly
90.2760°
Rev number
5,213

§ Raw data

STARLINK-342911 64359U 25126R   26145.13459374  .00003872  00000+0  33213-3 0  99912 64359  70.0003 201.6614 0003695 269.7975  90.2760 14.98326558 52133

JSON: /api/v1/satellites/64359 · /tle

For live sub-satellite position, see the globe view (requires WebGL).

§ Visibility from observer

Set your observer location to see the next 7 days of passes ≥ 10°. The values pass through the URL so the page stays shareable.

No JS? Fill the form by hand. The geolocation button needs JavaScript.